GOES 14                 
1 35491U 09033A   19261.60604942 -.00000097  00000-0  00000-0 0  9994
2 35491   0.3501 278.2684 0012434 297.5285 255.3775  1.00273059 37418
DELTA 4 R/B             
1 35492U 09033B   19261.60331966 -.00000236  00000-0  00000-0 0  9993
2 35492  14.4046  15.5823 5219598 292.9594   4.9348  1.93163859 72155